Hourly Data Report for July 31, 2004

TORONTO CITY
ONTARIO

43°40'00.000" N
79°24'00.000" W
112.50 m
6158355
71508
XTO

Download Data

Hourly Data (July 2004)
Hourly Data Report for July 31, 2004
TIME
LST
Temp Definition
°C
Dew Point Definition
°C
Rel Hum Definition
%
Precip. Amount Definition
mm

Wind Dir Definition
10's deg

Wind Spd Definition
km/h
Visibility Definition
km
Stn Press Definition
kPa
Hmdx Definition


Wind Chill Definition


Weather Definition


00:00 21.7 21.2 97   LegendMM LegendMM LegendMM 99.91 30   LegendNANA
01:00 20.5 18.2 87   LegendMM LegendMM LegendMM 99.93 27   LegendNANA
02:00 19.7 18.2 91   LegendMM LegendMM LegendMM 99.85     LegendNANA
03:00 19.4 18.7 96   LegendMM LegendMM LegendMM 99.78     LegendNANA
04:00 19.9 19.3 96   LegendMM LegendMM LegendMM 99.70     LegendNANA
05:00 19.6 19.3 98   LegendMM LegendMM LegendMM 99.63     LegendNANA
06:00 19.9 19.7 99   LegendMM LegendMM LegendMM 99.63     LegendNANA
07:00 20.4 20.3 99   LegendMM LegendMM LegendMM 99.62 28   LegendNANA
08:00 20.9 20.8 99   LegendMM LegendMM LegendMM 99.59 29   LegendNANA
09:00 20.9 20.8 99   LegendMM LegendMM LegendMM 99.60 29   LegendNANA
10:00 21.5 21.2 98   LegendMM LegendMM LegendMM 99.61 30   LegendNANA
11:00 22.1 21.7 98   LegendMM LegendMM LegendMM 99.62 31   LegendNANA
12:00 24.0 22.1 89   LegendMM LegendMM LegendMM 99.63 33   LegendNANA
13:00 25.2 22.2 83   LegendMM LegendMM LegendMM 99.64 35   LegendNANA
14:00 26.4 22.3 78   LegendMM LegendMM LegendMM 99.59 36   LegendNANA
15:00 25.8 21.7 78   LegendMM LegendMM LegendMM 99.60 35   LegendNANA
16:00 26.2 21.9 77   LegendMM LegendMM LegendMM 99.62 35   LegendNANA
17:00 26.3 22.1 78   LegendMM LegendMM LegendMM 99.66 36   LegendNANA
18:00 27.2 19.5 63   LegendMM LegendMM LegendMM 99.74 34   LegendNANA
19:00 26.2 18.9 64   LegendMM LegendMM LegendMM 99.78 33   LegendNANA
20:00 25.1 18.9 69   LegendMM LegendMM LegendMM 99.84 32   LegendNANA
21:00 24.1 18.9 73   LegendMM LegendMM LegendMM 99.92 31   LegendNANA
22:00 22.3 19.0 82   LegendMM LegendMM LegendMM 99.98 29   LegendNANA
23:00 22.2 21.2 94   LegendMM LegendMM LegendMM 100.01 31   LegendNANA

Notes on Data Quality.

Legend

  • E = Estimated
  • M = Missing
  • NA = Not Available*
  • [empty] = Indicates an unobserved value
Date modified: